DW2741 Weather Reports


Display with metric or nautical units.
time (UTC)temp
F
wind
direction
speed
MPH
gust
MPH
rain 1hr
in
rain 24hr
in
rain mn
in
humidity
%
barometer
mb
20210923200049 71 282 0.0 6.0 0.00 0.00 0.00 55 1016.3
20210923194549 71 281 0.0 0.0 0.00 0.00 0.00 57 1016.4
20210923193154 70 279 0.0 4.0 0.00 0.00 0.00 57 1016.6
20210923191618 70 277 0.0 11.0 0.00 0.00 0.00 59 1016.8
20210923190127 69 298 0.0 0.0 0.00 0.00 0.00 60 1017.1
20210923184602 69 100 0.0 7.0 0.00 0.00 0.00 59 1017.3
20210923183037 69 284 2.0 8.0 0.00 0.00 0.00 61 1017.4
20210923181547 68 306 0.0 6.0 0.00 0.00 0.00 63 1017.7
20210923180238 68 275 3.0 10.0 0.00 0.00 0.00 63 1017.9
20210923174621 67 302 0.0 5.0 0.00 0.00 0.00 65 1018.1
20210923173117 67 331 0.0 5.0 0.00 0.00 0.00 66 1018.2
20210923171613 67 71 0.0 2.0 0.00 0.00 0.00 67 1018.3
20210923170052 67 298 0.0 8.0 0.00 0.00 0.00 67 1018.4
20210923164554 67 321 0.0 5.0 0.00 0.00 0.00 68 1018.5
20210923163011 66 109 0.0 7.0 0.00 0.00 0.00 67 1018.6
20210923161638 66 71 0.0 7.0 0.00 0.00 0.00 72 1018.6
20210923160127 64 321 0.0 4.0 0.00 0.00 0.00 74 1018.9
20210923154535 63 319 0.0 3.0 0.00 0.00 0.00 75 1019.0
20210923153042 62 317 0.0 0.0 0.00 0.00 0.00 80 1019.0
20210923151521 61 276 0.0 0.0 0.00 0.00 0.00 82 1019.0
20210923150106 60 280 0.0 0.0 0.00 0.00 0.00 84 1018.9
20210923144605 59 280 0.0 0.0 0.00 0.00 0.00 85 1018.9
20210923143057 57 280 0.0 0.0 0.00 0.00 0.00 88 1018.8
20210923141555 56 280 0.0 0.0 0.00 0.01 0.00 86 1018.6
20210923140114 54 283 0.0 0.0 0.00 0.01 0.00 83 1018.6
20210923134527 53 283 0.0 1.0 0.00 0.01 0.00 82 1018.4
20210923133012 51 283 0.0 0.0 0.00 0.01 0.00 85 1018.3
20210923131638 50 283 0.0 0.0 0.00 0.01 0.00 87 1018.2
20210923130124 49 283 0.0 0.0 0.00 0.01 0.00 88 1018.1
20210923124627 48 283 0.0 0.0 0.00 0.01 0.00 89 1018.1
20210923123047 48 283 0.0 0.0 0.00 0.01 0.00 89 1017.9
20210923121529 48 283 0.0 0.0 0.00 0.01 0.00 89 1017.6
20210923120022 48 283 0.0 0.0 0.00 0.01 0.00 89 1017.4
20210923114715 48 283 0.0 0.0 0.00 0.01 0.00 89 1017.2
20210923113108 49 283 0.0 0.0 0.00 0.01 0.00 89 1016.9
20210923111537 49 283 0.0 0.0 0.00 0.02 0.00 89 1016.9
20210923110124 49 283 0.0 0.0 0.00 0.02 0.00 89 1016.8
20210923104510 50 283 0.0 0.0 0.00 0.02 0.00 89 1016.6
20210923103009 50 283 0.0 0.0 0.00 0.02 0.00 89 1016.3
20210923101632 50 283 0.0 0.0 0.00 0.02 0.00 88 1016.3
20210923100154 50 283 0.0 0.0 0.00 0.02 0.00 88 1016.2
20210923094616 50 283 0.0 0.0 0.00 0.02 0.00 88 1016.2
20210923093047 50 283 0.0 0.0 0.00 0.02 0.00 88 1016.3
20210923091600 51 283 0.0 0.0 0.00 0.10 0.00 87 1016.3
20210923090016 51 283 0.0 0.0 0.00 0.10 0.00 87 1016.1
20210923084624 51 283 0.0 0.0 0.00 0.10 0.00 87 1016.1
20210923083159 51 283 0.0 0.0 0.00 0.10 0.00 86 1016.1
20210923081554 52 283 0.0 0.0 0.00 0.10 0.00 86 1015.8
20210923080058 52 283 0.0 0.0 0.00 0.10 0.00 86 1015.9
20210923074520 52 283 0.0 0.0 0.00 0.10 0.00 86 1015.8
20210923073013 53 283 0.0 0.0 0.00 0.10 0.00 85 1016.0
20210923071615 53 283 0.0 0.0 0.00 0.10 0.00 85 1016.1
20210923070101 53 283 0.0 0.0 0.00 0.10 0.00 85 1016.2
20210923064546 53 282 0.0 5.0 0.00 0.10 0.00 85 1016.0
20210923063109 53 80 0.0 0.0 0.00 0.10 0.00 84 1016.1
20210923061544 54 80 0.0 0.0 0.00 0.10 0.00 84 1016.4
20210923060012 54 80 0.0 0.0 0.00 0.10 0.00 84 1016.6
20210923054702 54 80 0.0 0.0 0.00 0.10 0.00 84 1016.6
20210923053222 54 80 0.0 0.0 0.00 0.10 0.00 84 1016.6
20210923051557 54 297 0.0 0.0 0.00 0.10 0.00 84 1016.8
20210923050057 54 296 0.0 0.0 0.00 0.10 0.00 84 1016.9
20210923044522 55 296 0.0 0.0 0.00 0.10 0.00 84 1016.9
20210923043024 55 296 0.0 0.0 0.00 0.10 0.00 84 1017.1
20210923041640 55 296 0.0 0.0 0.00 0.10 0.00 83 1017.1
20210923040244 56 297 0.0 0.0 0.00 0.10 0.00 82 1016.9
20210923034820 56 297 0.0 0.0 0.00 0.10 0.00 82 1016.9
20210923033031 57 297 0.0 0.0 0.00 0.10 0.00 81 1016.8
20210923031515 57 297 0.0 1.0 0.00 0.10 0.00 81 1016.6
20210923030014 58 296 0.0 3.0 0.00 0.10 0.00 81 1016.7
20210923024633 58 297 0.0 2.0 0.00 0.10 0.00 81 1016.7
20210923023100 58 297 0.0 4.0 0.00 0.10 0.00 80 1016.8
20210923021530 59 331 0.0 7.0 0.00 0.10 0.00 80 1016.7
20210923020051 59 360 0.0 2.0 0.00 0.10 0.00 80 1016.6
20210923014528 60 194 0.0 0.0 0.00 0.10 0.00 80 1016.5
20210923013017 60 196 0.0 0.0 0.00 0.10 0.00 78 1016.4
20210923011510 61 153 0.0 0.0 0.00 0.10 0.00 77 1016.2
20210923010010 61 98 0.0 13.0 0.00 0.10 0.00 76 1016.2
20210923004504 62 331 0.0 3.0 0.00 0.10 0.00 75 1016.1
20210923003002 63 360 0.0 0.0 0.00 0.10 0.00 75 1015.8
20210923001619 64 279 0.0 0.0 0.00 0.10 0.00 73 1015.5
20210923000332 65 279 0.0 0.0 0.00 0.10 0.00 71 1015.3
20210922234643 66 279 0.0 1.0 0.00 0.10 0.00 68 1015.1
20210922233058 67 279 0.0 0.0 0.00 0.10 0.00 67 1015.1
20210922231517 68 279 0.0 7.0 0.00 0.10 0.00 64 1015.1
20210922230033 69 288 0.0 2.0 0.00 0.10 0.00 65 1015.0
20210922224519 70 295 0.0 6.0 0.00 0.10 0.00 65 1014.7
20210922223009 70 299 0.0 5.0 0.00 0.10 0.00 64 1014.6
20210922221511 71 281 2.0 7.0 0.00 0.10 0.00 62 1014.6
20210922220010 70 291 0.0 11.0 0.00 0.10 0.00 64 1014.7
20210922214505 70 288 0.0 8.0 0.00 0.10 0.00 66 1014.5
20210922213010 69 286 2.0 12.0 0.00 0.10 0.00 67 1014.4
20210922211603 69 300 0.0 7.0 0.00 0.10 0.00 70 1014.3
20210922210150 69 288 0.0 9.0 0.00 0.10 0.00 68 1014.4
20210922204547 70 292 1.0 11.0 0.00 0.10 0.00 67 1014.4
20210922203057 70 271 1.0 14.0 0.00 0.10 0.00 69 1014.4
20210922201502 69 273 4.0 13.0 0.00 0.10 0.10 70 1014.4